This is the latest recevied weather packets stored in our database for station/object KJ4EWA. If no packets are shown the sender has not sent any weather packets the latest 10 day(s).
| Time | Temp. | Humidity | Pressure | Rain* | Wind** | Luminosity | Snow |
|---|---|---|---|---|---|---|---|
| 1777448403 | 22.22° C | 99% | 1018.2 hPa | 0 mm | - | 0 W/m² | - |
| 1777448099 | 22.22° C | 99% | 1018.2 hPa | 0 mm | - | 0 W/m² | - |
| 1777447795 | 22.22° C | 99% | 1018 hPa | 0 mm | - | 0 W/m² | - |
| 1777447491 | 21.67° C | 99% | 1018.4 hPa | 0 mm | - | 0 W/m² | - |
| 1777447188 | 21.67° C | 99% | 1018.3 hPa | 0 mm | - | 0 W/m² | - |
| 1777446887 | 21.67° C | 99% | 1018.4 hPa | 0 mm | - | 0 W/m² | - |
| 1777446583 | 21.11° C | 99% | 1018.2 hPa | 0 mm | - | 0 W/m² | - |
| 1777446279 | 20.56° C | 99% | 1018.2 hPa | 0 mm | - | 0 W/m² | - |
| 1777445977 | 20.56° C | 99% | 1018 hPa | 0 mm | - | 0 W/m² | - |
| 1777445672 | 20.56° C | 99% | 1018.2 hPa | 0 mm | - | 0 W/m² | - |
| 1777445368 | 20.56° C | 99% | 1018.2 hPa | 0 mm | - | 0 W/m² | - |
| 1777445065 | 20.56° C | 99% | 1018.3 hPa | 0 mm | - | 0 W/m² | - |
| 1777444761 | 20.56° C | 99% | 1018 hPa | 0 mm | - | 0 W/m² | - |
| 1777444456 | 21.11° C | 99% | 1018.4 hPa | 0 mm | - | 0 W/m² | - |
| 1777444154 | 21.11° C | 99% | 1018.7 hPa | 0 mm | - | 0 W/m² | - |
| 1777443850 | 21.11° C | 99% | 1018.6 hPa | 0 mm | - | 0 W/m² | - |
| 1777443546 | 20.56° C | 99% | 1018.6 hPa | 0 mm | - | 0 W/m² | - |
| 1777443241 | 20.56° C | 99% | 1018.8 hPa | 0 mm | - | 0 W/m² | - |
| 1777442939 | 20.56° C | 99% | 1019 hPa | 0 mm | - | 0 W/m² | - |
| 1777442635 | 20.56° C | 99% | 1018.9 hPa | 0 mm | - | 0 W/m² | - |
| 1777442330 | 20.56° C | 99% | 1019 hPa | 0 mm | - | 0 W/m² | - |
| 1777442028 | 21.11° C | 99% | 1019 hPa | 0 mm | - | 0 W/m² | - |
| 1777441723 | 21.11° C | 99% | 1019.3 hPa | 0 mm | - | 0 W/m² | - |
| 1777441418 | 21.67° C | 99% | 1019.4 hPa | 0 mm | - | 0 W/m² | - |
| 1777441113 | 21.67° C | 99% | 1019.4 hPa | 0 mm | - | 0 W/m² | - |
* Rain latest hour (hover to see other rain measurements)
** Current wind speed in m/s (hover to see current wind gust speed)